Date,TemperatureHighF,TemperatureAvgF,TemperatureLowF,DewpointHighF,DewpointAvgF,DewpointLowF,HumidityHigh,HumidityAvg,HumidityLow,PressureMaxIn,PressureMinIn,WindSpeedMaxMPH,WindSpeedAvgMPH,GustSpeedMaxMPH,PrecipitationSumIn
2013-1-1,51.0,39.4,32.0,27.0,20.5,11.0,74,50,24,0.00,40.00,15,7,26,0.00
2013-1-2,57.0,41.9,32.0,26.0,20.4,17.0,57,44,21,0.00,40.00,16,11,21,0.00
2013-1-3,62.0,45.0,36.0,24.0,19.9,13.0,58,40,16,0.00,40.00,16,8,22,0.00
2013-1-4,58.0,45.1,36.0,24.0,21.3,16.0,52,40,20,0.00,40.00,13,8,20,0.00
2013-1-5,58.0,46.2,37.0,26.0,22.2,17.0,57,41,20,0.00,40.00,14,6,17,0.00
2013-1-6,47.0,40.2,36.0,38.0,33.9,22.0,96,80,44,0.00,40.00,15,5,21,0.04
2013-1-7,51.0,39.1,32.0,37.0,29.1,23.0,88,69,44,0.00,40.00,10,5,16,0.01
2013-1-8,65.0,46.5,34.0,34.0,31.2,28.0,90,59,29,0.00,40.00,18,5,24,0.00
2013-1-9,63.0,53.4,45.0,35.0,30.4,26.0,55,42,30,0.00,40.00,22,8,32,0.00
2013-1-10,48.0,38.0,30.0,38.0,25.3,17.0,96,63,41,0.00,40.00,29,16,47,0.00
2013-1-11,42.0,34.8,30.0,29.0,20.6,17.0,96,57,36,0.00,40.00,19,8,33,0.06
2013-1-12,38.0,32.1,27.0,25.0,18.0,11.0,75,57,33,0.00,40.00,14,6,18,0.01
2013-1-13,43.0,32.4,26.0,23.0,16.0,9.0,72,52,34,0.00,40.00,17,8,24,0.00
2013-1-14,42.0,32.2,24.0,21.0,12.4,3.0,70,46,21,0.00,40.00,12,8,18,0.00
2013-1-15,55.0,38.8,28.0,23.0,17.4,14.0,60,44,20,0.00,40.00,13,7,19,0.00
2013-1-16,65.0,46.0,33.0,29.0,25.0,23.0,68,46,22,0.00,40.00,16,7,21,0.00
2013-1-17,69.0,49.5,41.0,25.0,16.6,3.0,45,31,8,0.00,40.00,18,12,26,0.00
2013-1-18,70.0,49.8,40.0,18.0,13.1,2.0,37,26,7,0.00,40.00,17,12,24,0.00
2013-1-19,74.0,50.4,41.0,17.0,11.1,-5.0,35,23,5,0.00,40.00,20,13,26,0.00
2013-1-20,71.0,51.1,40.0,15.0,11.2,2.0,30,21,7,0.00,40.00,20,12,26,0.00
2013-1-21,72.0,53.3,42.0,21.0,11.5,-1.0,31,21,6,0.00,40.00,18,13,26,0.00
2013-1-22,71.0,53.7,42.0,19.0,14.6,1.0,36,24,7,0.00,40.00,19,13,27,0.00
2013-1-23,60.0,52.8,47.0,44.0,22.4,14.0,79,33,21,0.00,40.00,18,9,26,0.04
2013-1-24,60.0,50.8,46.0,50.0,46.2,42.0,96,84,67,0.00,40.00,13,6,20,0.27
2013-1-25,58.0,52.5,49.0,50.0,45.8,42.0,97,79,63,0.00,40.00,10,6,15,0.04
2013-1-26,57.0,50.4,46.0,50.0,47.2,42.0,97,89,68,0.00,40.00,22,5,29,0.14
2013-1-27,47.0,43.2,39.0,43.0,30.3,19.0,94,62,41,0.00,40.00,32,15,44,0.01
2013-1-28,46.0,40.1,36.0,30.0,25.7,20.0,76,57,37,0.00,40.00,20,11,30,0.00
2013-1-29,50.0,39.0,32.0,34.0,30.2,26.0,82,72,52,0.00,40.00,17,6,21,0.00
2013-1-30,63.0,47.0,34.0,37.0,32.1,29.0,88,61,29,0.00,40.00,19,6,28,0.00
2013-1-31,71.0,56.5,41.0,35.0,30.7,28.0,60,39,22,0.00,40.00,13,7,19,0.00
2013-2-1,69.0,54.4,42.0,33.0,29.0,25.0,52,39,24,0.00,40.00,14,8,21,0.00
2013-2-2,70.0,56.8,48.0,35.0,28.9,26.0,44,36,21,0.00,40.00,16,8,19,0.00
2013-2-3,66.0,54.6,46.0,38.0,33.7,28.0,63,46,28,0.00,40.00,19,8,25,0.00
2013-2-4,70.0,54.1,39.0,36.0,31.0,23.0,69,44,17,0.00,40.00,13,5,17,0.00
2013-2-5,67.0,52.8,41.0,40.0,29.8,20.0,69,45,18,0.00,40.00,25,6,34,0.00
2013-2-6,55.0,46.8,40.0,40.0,37.0,33.0,92,70,47,0.00,40.00,18,6,24,0.00
2013-2-7,57.0,42.1,32.0,35.0,28.8,23.0,78,61,27,0.00,40.00,26,6,33,0.00
2013-2-8,47.0,37.8,32.0,35.0,29.8,23.0,96,75,43,0.00,40.00,19,7,29,0.11
2013-2-9,48.0,38.6,33.0,32.0,27.3,23.0,90,66,41,0.00,40.00,17,8,29,0.04
2013-2-10,51.0,39.1,29.0,28.0,24.9,22.0,77,58,34,0.00,40.00,15,8,23,0.00
2013-2-11,55.0,41.0,32.0,27.0,23.5,15.0,74,53,23,0.00,40.00,15,8,20,0.00
2013-2-12,58.0,43.0,32.0,25.0,23.1,20.0,71,48,25,0.00,40.00,19,7,24,0.00
2013-2-13,63.0,45.4,33.0,34.0,26.3,15.0,68,50,15,0.00,40.00,16,6,20,0.00
2013-2-14,70.0,52.0,39.0,35.0,24.2,15.0,52,37,12,0.00,40.00,22,10,36,0.00
2013-2-15,75.0,56.0,42.0,25.0,18.2,12.0,41,26,9,0.00,40.00,20,13,30,0.00
2013-2-16,73.0,54.6,46.0,23.0,12.5,-2.0,30,20,6,0.00,40.00,15,11,26,0.00
2013-2-17,69.0,52.2,40.0,33.0,22.5,16.0,52,33,14,0.00,40.00,24,9,39,0.00
2013-2-18,66.0,51.2,39.0,33.0,26.7,20.0,56,41,18,0.00,40.00,16,8,31,0.00
2013-2-19,48.0,40.9,32.0,36.0,29.5,17.0,97,68,33,0.00,40.00,27,8,40,0.00
2013-2-20,40.0,34.6,32.0,32.0,29.6,26.0,97,82,69,0.00,40.00,23,9,30,0.09
2013-2-21,50.0,38.4,29.0,30.0,26.1,21.0,87,63,32,0.00,40.00,20,7,25,0.01
2013-2-22,56.0,42.4,32.0,33.0,26.2,19.0,72,55,26,0.00,40.00,21,9,28,0.00
2013-2-23,55.0,44.1,34.0,35.0,29.8,25.0,77,59,40,0.00,40.00,25,11,41,0.00
2013-2-24,60.0,45.5,34.0,35.0,23.8,3.0,90,51,10,0.00,40.00,12,6,20,0.00
2013-2-25,62.0,46.2,32.0,28.0,21.0,15.0,53,38,22,0.00,40.00,18,8,26,0.00
2013-2-26,61.0,46.1,35.0,34.0,26.5,18.0,62,48,19,0.00,40.00,19,8,27,0.00
2013-2-27,66.0,49.5,37.0,30.0,23.6,8.0,62,40,10,0.00,40.00,13,8,21,0.00
2013-2-28,67.0,51.5,37.0,31.0,24.9,17.0,54,37,17,0.00,40.00,17,8,22,0.00
2013-3-1,76.0,57.5,42.0,31.0,24.8,19.0,53,32,12,0.00,40.00,17,10,26,0.00
2013-3-2,80.0,62.0,50.0,28.0,23.8,19.0,35,25,12,0.00,40.00,17,11,29,0.00
2013-3-3,68.0,58.6,51.0,36.0,31.8,22.0,50,37,23,0.00,40.00,25,14,40,0.00
2013-3-4,67.0,56.6,48.0,42.0,36.6,31.0,62,48,26,0.00,40.00,20,8,29,0.00
2013-3-5,70.0,56.5,45.0,35.0,28.5,18.0,51,36,14,0.00,40.00,20,10,29,0.00
2013-3-6,55.0,49.3,42.0,37.0,31.7,28.0,66,51,37,0.00,40.00,18,8,30,0.00
2013-3-7,56.0,47.1,39.0,37.0,30.5,26.0,67,53,35,0.00,40.00,15,7,26,0.00
2013-3-8,46.0,40.3,32.0,39.0,34.5,31.0,97,81,62,0.00,40.00,21,8,28,0.18
2013-3-9,50.0,42.7,38.0,39.0,36.3,31.0,96,79,55,0.00,40.00,25,12,32,0.04
2013-3-10,66.0,49.8,34.0,39.0,33.1,14.0,96,59,13,0.00,40.00,19,7,26,0.00
2013-3-11,74.0,53.3,40.0,43.0,30.8,1.0,70,46,6,0.00,40.00,17,6,22,0.00
2013-3-12,81.0,60.7,45.0,47.0,30.2,11.0,73,38,7,0.00,40.00,12,5,21,0.00
2013-3-13,87.0,64.8,51.0,47.0,31.5,19.0,43,31,9,0.00,40.00,16,9,24,0.00
2013-3-14,87.0,67.8,55.0,46.0,30.3,20.0,43,27,9,0.00,40.00,18,11,26,0.00
2013-3-15,77.0,65.0,55.0,50.0,36.3,27.0,58,36,22,0.00,40.00,19,8,28,0.00
2013-3-16,76.0,61.6,51.0,44.0,39.0,31.0,67,46,19,0.00,40.00,22,8,44,0.00
2013-3-17,73.0,61.1,51.0,40.0,32.5,24.0,48,35,24,0.00,40.00,29,11,44,0.00
2013-3-18,68.0,56.8,46.0,34.0,31.0,25.0,51,38,25,0.00,40.00,22,9,29,0.00
2013-3-19,74.0,61.1,50.0,36.0,30.6,26.0,42,32,21,0.00,40.00,20,7,31,0.00
2013-3-20,72.0,62.2,56.0,38.0,33.9,19.0,44,36,15,0.00,40.00,27,16,40,0.00
2013-3-21,66.0,57.9,50.0,41.0,36.8,28.0,59,46,33,0.00,40.00,32,12,40,0.00
2013-3-22,66.0,52.8,43.0,40.0,34.3,23.0,77,53,22,0.00,40.00,25,10,40,0.00
2013-3-23,70.0,52.2,39.0,33.0,26.6,11.0,60,40,13,0.00,40.00,16,9,24,0.00
2013-3-24,72.0,55.9,43.0,33.0,26.9,21.0,47,34,18,0.00,40.00,21,8,33,0.00
2013-3-25,72.0,57.6,45.0,33.0,29.8,26.0,54,36,19,0.00,40.00,19,7,27,0.00
2013-3-26,71.0,58.5,47.0,38.0,28.1,21.0,49,32,20,0.00,40.00,28,10,43,0.00
2013-3-27,71.0,59.5,51.0,38.0,33.7,31.0,51,39,24,0.00,40.00,26,13,40,0.00
2013-3-28,72.0,64.5,58.0,40.0,33.4,24.0,45,32,22,0.00,40.00,27,12,37,0.00
2013-3-29,80.0,63.8,49.0,45.0,31.6,20.0,48,32,12,0.00,40.00,15,8,21,0.00
2013-3-30,80.0,66.0,55.0,42.0,34.6,18.0,50,33,11,0.00,40.00,18,9,26,0.00
2013-3-31,70.0,59.0,52.0,46.0,39.6,34.0,76,51,28,0.00,40.00,24,9,33,0.00
2013-4-1,67.0,55.2,46.0,42.0,36.0,33.0,76,51,29,0.00,40.00,30,12,43,0.01
2013-4-2,68.0,56.8,47.0,44.0,38.4,34.0,64,51,35,0.00,40.00,22,9,30,0.01
2013-4-3,81.0,62.4,46.0,45.0,36.9,27.0,66,43,14,0.00,40.00,16,7,24,0.00
2013-4-4,73.0,63.3,57.0,41.0,35.3,30.0,47,36,24,0.00,40.00,23,12,39,0.00
2013-4-5,69.0,60.9,55.0,41.0,38.5,35.0,54,44,29,0.00,40.00,28,13,41,0.00
2013-4-6,68.0,58.4,49.0,40.0,38.5,35.0,64,49,35,0.00,40.00,28,14,45,0.00
2013-4-7,68.0,59.1,50.0,43.0,39.3,36.0,72,49,32,0.00,40.00,30,12,43,0.00
2013-4-8,58.0,48.6,41.0,41.0,32.6,26.0,87,55,41,0.00,40.00,32,19,49,0.10
2013-4-9,63.0,50.7,38.0,36.0,30.0,26.0,73,48,27,0.00,40.00,22,8,32,0.01
2013-4-10,75.0,59.8,43.0,33.0,28.8,21.0,61,34,16,0.00,40.00,19,9,28,0.00
2013-4-11,76.0,62.9,50.0,43.0,36.8,30.0,57,40,23,0.00,40.00,21,10,30,0.00
2013-4-12,80.0,64.2,50.0,43.0,37.3,26.0,62,41,16,0.00,40.00,21,9,39,0.00
2013-4-13,77.0,66.0,53.0,40.0,33.8,29.0,48,31,19,0.00,40.00,27,13,39,0.00
2013-4-14,72.0,63.0,55.0,44.0,36.8,28.0,54,39,23,0.00,40.00,33,14,53,0.01
2013-4-15,67.0,58.5,50.0,34.0,29.5,25.0,49,33,21,0.00,40.00,35,22,52,0.01
2013-4-16,55.0,47.9,38.0,31.0,23.7,19.0,63,40,24,0.00,40.00,27,18,67,0.00
2013-4-17,63.0,50.3,40.0,26.0,22.4,17.0,52,34,22,0.00,40.00,15,9,24,0.00
2013-4-18,68.0,54.9,41.0,27.0,22.8,12.0,55,32,12,0.00,40.00,18,8,27,0.00
2013-4-19,77.0,61.5,47.0,28.0,23.6,16.0,40,26,10,0.00,40.00,29,12,41,0.00
2013-4-20,81.0,66.8,52.0,38.0,32.2,26.0,42,29,13,0.00,40.00,21,10,28,0.00
2013-4-21,86.0,68.8,54.0,38.0,33.6,29.0,38,28,18,0.00,40.00,21,9,32,0.00
2013-4-22,83.0,70.2,58.0,37.0,34.8,31.0,41,28,16,0.00,40.00,26,12,39,0.00
2013-4-23,83.0,68.6,58.0,38.0,32.3,15.0,42,28,8,0.00,40.00,16,9,28,0.00
2013-4-24,79.0,65.5,56.0,35.0,23.9,3.0,35,24,6,0.00,40.00,24,12,37,0.00
2013-4-25,78.0,64.7,52.0,43.0,33.4,19.0,50,32,17,0.00,40.00,25,10,35,0.00
2013-4-26,84.0,67.5,53.0,46.0,38.3,28.0,56,38,13,0.00,40.00,25,9,36,0.00
2013-4-27,88.0,68.9,57.0,44.0,33.8,14.0,51,30,7,0.00,40.00,25,8,40,0.00
2013-4-28,88.0,74.0,61.0,44.0,39.0,35.0,39,29,17,0.00,40.00,25,9,38,0.00
2013-4-29,89.0,74.0,62.0,47.0,42.1,40.0,45,33,20,0.00,40.00,21,11,34,0.00
2013-4-30,83.0,73.0,64.0,46.0,41.5,34.0,46,34,20,0.00,40.00,28,17,41,0.00
2013-5-1,83.0,66.4,57.0,42.0,29.6,-21.0,54,33,2,0.00,40.00,24,7,35,0.00
2013-5-2,85.0,65.6,56.0,17.0,9.6,-13.0,21,13,2,0.00,40.00,16,12,29,0.00
2013-5-3,88.0,69.2,55.0,29.0,19.2,0.0,22,16,4,0.00,40.00,19,12,32,0.00
2013-5-4,82.0,71.6,60.0,34.0,28.5,14.0,36,22,8,0.00,40.00,26,12,38,0.00
2013-5-5,73.0,64.6,58.0,36.0,28.1,19.0,40,26,15,0.00,40.00,27,13,44,0.00
2013-5-6,64.0,56.3,48.0,45.0,39.0,34.0,91,54,36,0.00,40.00,20,10,37,0.00
2013-5-7,63.0,54.0,48.0,48.0,43.8,38.0,97,71,49,0.00,40.00,25,8,38,0.00
2013-5-8,72.0,57.7,47.0,51.0,43.2,39.0,76,60,36,0.00,40.00,33,6,43,0.00
2013-5-9,67.0,58.5,49.0,54.0,46.4,41.0,75,65,46,0.00,40.00,13,7,21,0.00
2013-5-10,84.0,70.5,53.0,51.0,44.9,39.0,78,44,20,0.00,40.00,22,9,34,0.00
2013-5-11,93.0,75.4,60.0,47.0,41.3,32.0,50,33,12,0.00,40.00,20,8,30,0.00
2013-5-12,93.0,78.4,66.0,45.0,42.4,26.0,42,29,9,0.00,40.00,20,11,30,0.00
2013-5-13,97.0,80.1,68.0,46.0,40.2,30.0,43,27,10,0.00,40.00,19,11,30,0.00
2013-5-14,89.0,75.3,64.0,41.0,32.4,19.0,35,22,9,0.00,40.00,26,14,43,0.00
2013-5-15,86.0,73.3,62.0,45.0,38.1,29.0,44,30,13,0.00,40.00,32,12,46,0.00
2013-5-16,75.0,60.5,59.0,45.0,21.2,-99.9,57,39,23,0.00,40.00,29,11,39,0.00
2013-5-17,70.0,63.6,59.0,42.0,34.2,-99.9,48,41,36,0.00,40.00,31,18,48,0.00
2013-5-18,77.0,65.3,54.0,39.0,34.8,29.0,53,34,17,0.00,40.00,32,13,46,0.00
2013-5-19,83.0,68.5,55.0,42.0,36.1,30.0,45,31,22,0.00,40.00,18,8,31,0.00
2013-5-20,87.0,72.0,57.0,41.0,35.0,22.0,54,30,10,0.00,40.00,18,10,26,0.00
2013-5-21,85.0,73.6,60.0,35.0,28.7,21.0,36,21,10,0.00,40.00,26,16,43,0.00
2013-5-22,69.0,62.7,55.0,36.0,31.0,25.0,48,31,19,0.00,40.00,31,17,46,0.00
2013-5-23,71.0,60.2,48.0,30.0,24.0,19.0,42,26,14,0.00,40.00,31,13,43,0.00
2013-5-24,81.0,63.1,48.0,33.0,29.4,23.0,48,30,15,0.00,40.00,20,10,30,0.00
2013-5-25,79.0,66.3,55.0,34.0,31.6,29.0,41,29,17,0.00,40.00,27,14,37,0.00
2013-5-26,76.0,66.2,55.0,40.0,34.4,26.0,44,32,17,0.00,40.00,31,15,44,0.00
2013-5-27,78.0,65.5,56.0,44.0,39.8,33.0,55,40,20,0.00,40.00,29,13,45,0.00
2013-5-28,75.0,65.9,58.0,47.0,42.6,39.0,57,44,32,0.00,40.00,28,16,46,0.00
2013-5-29,77.0,67.7,55.0,48.0,45.9,40.0,69,48,27,0.00,40.00,34,14,53,0.00
2013-5-30,84.0,70.8,57.0,48.0,43.9,37.0,63,41,19,0.00,40.00,29,13,45,0.00
2013-5-31,91.0,75.4,59.0,44.0,39.6,28.0,45,30,14,0.00,40.00,23,10,33,0.00
2013-6-1,97.0,76.2,63.0,43.0,36.1,13.0,41,27,5,0.00,40.00,21,6,28,0.00
2013-6-2,95.0,80.4,67.0,42.0,32.4,27.0,24,18,9,0.00,40.00,21,12,29,0.00
2013-6-3,96.0,80.8,67.0,46.0,39.7,34.0,34,24,12,0.00,40.00,18,10,30,0.00
2013-6-4,93.0,77.9,66.0,51.0,45.6,37.0,46,33,22,0.00,40.00,25,12,39,0.00
2013-6-5,98.0,80.0,65.0,54.0,48.1,43.0,48,35,16,0.00,40.00,23,11,33,0.00
2013-6-6,102.0,81.0,70.0,54.0,46.6,30.0,52,33,9,0.00,40.00,24,9,33,0.00
2013-6-7,104.0,82.4,70.0,56.0,44.1,18.0,46,30,5,0.00,40.00,21,9,33,0.00
2013-6-8,106.0,88.0,73.0,56.0,42.5,16.0,47,23,4,0.00,40.00,25,10,38,0.00
2013-6-9,99.0,86.4,76.0,51.0,43.3,23.0,39,25,7,0.00,40.00,26,8,38,0.00
2013-6-10,83.0,74.9,64.0,45.0,39.1,29.0,41,29,15,0.00,40.00,27,14,42,0.00
2013-6-11,94.0,78.4,64.0,49.0,38.9,28.0,45,28,10,0.00,40.00,19,9,33,0.00
2013-6-12,92.0,79.6,66.0,48.0,37.2,29.0,32,23,13,0.00,40.00,24,13,37,0.00
2013-6-13,87.0,74.9,63.0,43.0,33.2,22.0,42,24,10,0.00,40.00,30,13,44,0.00
2013-6-14,91.0,73.5,58.0,36.0,30.6,17.0,33,22,7,0.00,40.00,23,10,33,0.00
2013-6-15,92.0,75.0,60.0,34.0,28.3,19.0,29,19,7,0.00,40.00,22,12,32,0.00
2013-6-16,88.0,76.6,64.0,38.0,34.3,31.0,30,22,15,0.00,40.00,25,12,38,0.00
2013-6-17,88.0,74.3,64.0,44.0,39.8,36.0,38,29,19,0.00,40.00,27,12,41,0.00
2013-6-18,87.0,72.3,60.0,44.0,39.1,30.0,51,32,14,0.00,40.00,30,14,43,0.00
2013-6-19,77.0,68.0,57.0,43.0,37.8,33.0,54,34,24,0.00,40.00,25,17,37,0.00
2013-6-20,76.0,64.1,55.0,40.0,34.6,30.0,46,35,21,0.00,40.00,19,7,26,0.00
2013-6-22,88.0,80.3,69.0,38.0,35.5,32.0,30,21,14,0.00,40.00,23,14,33,0.00
2013-6-23,83.0,73.8,66.0,46.0,38.9,35.0,38,29,19,0.00,40.00,27,15,45,0.00
2013-6-24,78.0,70.1,61.0,53.0,43.6,34.0,56,39,28,0.00,40.00,37,16,48,0.00
2013-6-25,87.0,75.2,62.0,55.0,51.3,47.0,70,45,28,0.00,40.00,33,14,46,0.00
2013-6-26,97.0,81.2,68.0,59.0,54.6,51.0,58,42,24,0.00,40.00,23,11,36,0.00
2013-6-27,99.0,83.1,69.0,61.0,55.8,51.0,61,42,21,0.00,40.00,21,9,32,0.00
2013-6-28,104.0,87.0,72.0,58.0,53.3,49.0,52,34,17,0.00,40.00,27,11,35,0.00
2013-6-29,104.0,88.2,75.0,54.0,51.0,43.0,44,30,13,0.00,40.00,21,8,30,0.00
2013-6-30,106.0,90.3,78.0,54.0,47.1,32.0,36,25,8,0.00,40.00,22,10,29,0.00
2013-7-1,106.0,90.6,77.0,51.0,43.7,36.0,31,21,10,0.00,40.00,23,11,30,0.00
2013-7-2,103.0,88.4,77.0,51.0,47.7,41.0,36,26,12,0.00,40.00,27,9,45,0.00
2013-7-3,102.0,88.5,80.0,51.0,48.4,45.0,32,26,18,0.00,40.00,21,10,29,0.00
2013-7-4,106.0,91.4,77.0,58.0,52.5,49.0,40,28,15,0.00,40.00,21,11,34,0.00
2013-7-5,102.0,89.2,78.0,57.0,51.2,45.0,40,29,17,0.00,40.00,20,10,33,0.00
2013-7-6,99.0,86.6,75.0,47.0,40.4,27.0,37,22,8,0.00,40.00,20,9,30,0.00
2013-7-7,101.0,86.6,73.0,41.0,31.0,20.0,28,16,6,0.00,40.00,22,12,39,0.00
2013-7-8,100.0,84.2,72.0,31.0,25.5,20.0,18,13,6,0.00,40.00,18,13,36,0.00
2013-7-9,102.0,87.2,72.0,33.0,26.2,19.0,16,12,6,0.00,40.00,23,14,36,0.00
2013-7-10,94.0,84.4,77.0,45.0,32.7,-99.9,25,17,12,0.00,40.00,18,10,26,0.00
2013-7-11,94.0,81.2,73.0,59.0,48.6,41.0,60,34,18,0.00,40.00,21,11,30,0.00
2013-7-12,97.0,79.7,68.0,46.0,38.7,23.0,41,26,8,0.00,40.00,19,10,31,0.00
2013-7-13,97.0,84.5,70.0,38.0,33.8,24.0,29,18,9,0.00,40.00,23,13,35,0.00
2013-7-14,98.0,84.1,71.0,36.0,33.6,30.0,25,17,11,0.00,40.00,22,13,33,0.00
2013-7-15,97.0,83.3,70.0,37.0,33.2,29.0,26,17,11,0.00,40.00,17,9,30,0.00
2013-7-16,93.0,85.9,76.0,38.0,34.5,30.0,25,17,11,0.00,40.00,21,14,31,0.00
2013-7-17,95.0,79.3,65.0,44.0,37.4,33.0,33,23,13,0.00,40.00,20,10,29,0.00
2013-7-18,96.0,81.1,65.0,45.0,40.0,34.0,36,24,14,0.00,40.00,26,12,31,0.00
2013-7-19,100.0,82.0,67.0,42.0,38.4,31.0,33,23,10,0.00,40.00,23,11,35,0.00
2013-7-20,105.0,85.1,73.0,43.0,35.9,-99.9,28,19,10,0.00,40.00,22,10,31,0.00
2013-7-21,99.0,85.9,77.0,59.0,45.7,42.0,49,26,16,0.00,40.00,28,11,39,0.00
2013-7-22,94.0,78.8,70.0,63.0,59.5,54.0,78,55,27,0.00,40.00,25,8,48,0.30
2013-7-23,93.0,79.2,68.0,64.0,58.7,51.0,84,55,24,0.00,40.00,23,9,31,0.02
2013-7-24,97.0,83.7,71.0,59.0,52.2,45.0,62,37,18,0.00,40.00,22,10,32,0.00
2013-7-25,101.0,85.0,73.0,52.0,48.7,44.0,48,31,15,0.00,40.00,24,8,34,0.00
2013-7-26,85.0,77.3,71.0,67.0,58.0,51.0,78,53,35,0.00,40.00,20,9,28,0.10
2013-7-27,96.0,81.8,69.0,69.0,58.2,48.0,90,51,23,0.00,40.00,19,6,30,0.01
2013-7-28,95.0,82.9,73.0,55.0,48.6,41.0,51,33,18,0.00,40.00,23,12,32,0.00
2013-7-29,96.0,81.6,70.0,48.0,43.6,34.0,44,28,12,0.00,40.00,20,10,32,0.00
2013-7-30,97.0,83.1,69.0,45.0,42.4,39.0,37,25,15,0.00,40.00,17,10,27,0.00
2013-7-31,96.0,82.1,68.0,48.0,40.8,28.0,47,26,9,0.00,40.00,17,9,28,0.00
2013-8-1,90.0,78.5,66.0,44.0,38.0,32.0,34,24,13,0.00,40.00,31,16,42,0.00
2013-8-2,89.0,75.8,64.0,39.0,32.8,27.0,36,23,11,0.00,40.00,25,10,34,0.00
2013-8-3,93.0,80.2,65.0,35.0,28.9,16.0,30,17,6,0.00,40.00,25,10,33,0.00
2013-8-4,97.0,79.8,65.0,36.0,26.7,21.0,23,15,7,0.00,40.00,19,9,31,0.00
2013-8-5,96.0,78.7,66.0,39.0,32.6,25.0,26,20,8,0.00,40.00,20,10,30,0.00
2013-8-6,95.0,79.8,66.0,41.0,34.8,26.0,29,21,9,0.00,40.00,24,12,36,0.00
2013-8-7,87.0,73.9,63.0,45.0,39.5,26.0,41,30,11,0.00,40.00,24,10,39,0.00
2013-8-8,86.0,73.8,63.0,45.0,37.5,25.0,43,29,11,0.00,40.00,19,10,28,0.00
2013-8-9,88.0,75.3,60.0,46.0,37.1,33.0,39,26,14,0.00,40.00,20,10,31,0.00
2013-8-10,88.0,75.9,62.0,45.0,40.3,35.0,40,29,19,0.00,40.00,20,9,31,0.00
2013-8-11,89.0,76.2,62.0,47.0,42.0,33.0,45,31,16,0.00,40.00,22,11,29,0.00
2013-8-12,93.0,77.7,62.0,45.0,39.1,34.0,39,27,13,0.00,40.00,22,10,32,0.00
2013-8-13,97.0,79.6,65.0,43.0,34.7,-99.9,37,23,8,0.00,40.00,21,10,31,0.00
2013-8-14,97.0,81.4,67.0,37.0,33.1,24.0,29,19,8,0.00,40.00,19,9,27,0.00
2013-8-15,99.0,75.4,67.0,39.0,20.0,-99.9,25,16,11,0.00,40.00,24,11,33,0.00
2013-8-16,101.0,81.4,70.0,45.0,35.7,-99.9,29,21,14,0.00,40.00,22,11,30,0.00
2013-8-17,97.0,83.4,72.0,46.0,42.3,33.0,39,25,11,0.00,40.00,23,10,28,0.00
2013-8-18,100.0,82.0,69.0,52.0,40.7,33.0,42,25,13,0.00,40.00,20,11,42,0.10
2013-8-21,99.0,85.3,74.0,52.0,44.2,34.0,42,27,12,0.00,40.00,20,9,33,0.00
2013-8-22,98.0,84.7,72.0,47.0,39.6,31.0,37,23,10,0.00,40.00,21,11,36,0.00
2013-8-23,95.0,79.8,66.0,47.0,34.6,27.0,38,22,9,0.00,40.00,21,11,30,0.00
2013-8-24,93.0,77.7,65.0,39.0,32.3,28.0,30,21,10,0.00,40.00,18,9,29,0.00
2013-8-25,92.0,77.8,64.0,38.0,32.3,22.0,33,21,9,0.00,40.00,22,11,29,0.00
2013-8-26,94.0,78.7,67.0,57.0,40.5,31.0,47,27,15,0.00,40.00,16,10,37,0.00
2013-8-27,84.0,73.4,69.0,57.0,53.4,52.0,57,50,40,0.00,40.00,11,7,18,0.00
2013-8-28,96.0,87.6,77.0,54.0,48.7,46.0,36,27,19,0.00,40.00,14,9,33,0.00
2013-8-29,97.0,81.8,70.0,57.0,47.8,39.0,48,33,14,0.00,40.00,21,10,26,0.00
2013-8-30,97.0,82.6,69.0,55.0,48.6,42.0,49,32,21,0.00,40.00,24,10,31,0.00
2013-9-1,90.0,80.8,72.0,55.0,49.6,43.0,45,35,24,0.00,40.00,20,10,30,0.00
2013-9-2,97.0,81.7,73.0,56.0,52.3,44.0,55,39,18,0.00,40.00,20,7,31,0.00
2013-9-3,95.0,81.1,72.0,61.0,54.7,43.0,64,43,20,0.00,40.00,18,8,33,0.00
2013-9-4,99.0,81.0,68.0,58.0,50.7,41.0,60,39,14,0.00,40.00,19,7,33,0.00
2013-9-5,99.0,81.1,67.0,54.0,47.8,38.0,53,35,14,0.00,40.00,18,8,31,0.00
2013-9-6,100.0,81.8,66.0,54.0,44.0,34.0,55,31,11,0.00,40.00,20,8,27,0.00
2013-9-7,99.0,82.3,68.0,48.0,32.8,24.0,36,19,8,0.00,40.00,24,11,34,0.00
2013-9-18,67.0,64.5,61.0,47.0,44.3,43.0,51,48,43,0.00,40.00,16,4,21,0.00
2013-9-19,92.0,71.2,57.0,43.0,32.7,18.0,49,29,7,0.00,40.00,19,8,26,0.00
2013-9-20,92.0,76.4,64.0,40.0,29.8,22.0,31,19,10,0.00,40.00,20,13,31,0.00
2013-9-21,78.0,67.1,59.0,45.0,40.8,38.0,59,40,25,0.00,40.00,24,11,35,0.00
2013-9-22,68.0,59.2,52.0,45.0,38.9,32.0,65,48,37,0.00,40.00,19,13,29,0.00
2013-9-23,84.0,64.7,49.0,47.0,38.8,28.0,70,44,13,0.00,40.00,17,8,22,0.00
2013-9-24,87.0,70.3,54.0,38.0,31.5,21.0,48,27,9,0.00,40.00,25,11,36,0.00
2013-9-25,71.0,63.2,56.0,47.0,37.8,33.0,73,41,29,0.00,40.00,34,16,48,0.00
2013-9-26,67.0,57.2,46.0,38.0,31.8,23.0,67,41,21,0.00,40.00,25,10,43,0.00
2013-9-27,74.0,59.0,45.0,34.0,29.2,24.0,56,35,18,0.00,40.00,16,7,22,0.00
2013-9-28,82.0,65.2,50.0,30.0,24.8,9.0,38,24,7,0.00,40.00,17,10,25,0.00
2013-9-29,88.0,68.3,55.0,31.0,23.2,18.0,27,19,8,0.00,40.00,24,10,36,0.00
2013-9-30,82.0,70.0,59.0,45.0,35.1,29.0,49,29,19,0.00,40.00,21,10,36,0.00
2013-10-3,71.0,62.5,55.0,40.0,33.3,22.0,50,35,16,0.00,40.00,30,13,45,0.00
2013-10-4,74.0,60.2,47.0,33.0,17.2,2.0,51,26,6,0.00,40.00,22,13,30,0.00
2013-10-5,80.0,63.9,48.0,12.0,8.6,5.0,19,12,6,0.00,40.00,21,14,32,0.00
2013-10-6,87.0,66.7,50.0,21.0,9.3,5.0,17,12,5,0.00,40.00,19,12,26,0.00
2013-10-7,83.0,65.6,54.0,18.0,7.9,3.0,14,11,5,0.00,40.00,14,9,19,0.00
2013-10-8,77.0,64.2,52.0,25.0,17.2,11.0,22,16,11,0.00,40.00,21,12,32,0.00
2013-10-9,60.0,52.3,44.0,40.0,33.5,25.0,74,51,27,0.00,40.00,19,8,36,0.00
2013-10-17,75.0,60.6,47.0,31.0,23.2,17.0,33,24,16,0.00,40.00,17,9,23,0.00
2013-10-18,82.0,65.0,51.0,29.0,23.0,13.0,37,23,8,0.00,40.00,14,9,22,0.00
2013-10-19,84.0,65.7,52.0,23.0,19.3,10.0,28,18,7,0.00,40.00,14,10,22,0.00
2013-10-20,80.0,64.0,52.0,32.0,17.4,10.0,28,17,8,0.00,40.00,19,10,26,0.00
2013-10-21,84.0,66.7,54.0,23.0,16.5,12.0,24,16,7,0.00,40.00,20,10,29,0.00
2013-10-22,82.0,67.7,56.0,19.0,15.3,12.0,19,14,9,0.00,40.00,17,12,28,0.00
2013-10-23,83.0,67.1,58.0,22.0,18.3,16.0,22,16,8,0.00,40.00,16,10,26,0.00
2013-10-24,80.0,64.8,52.0,38.0,23.5,17.0,37,22,12,0.00,40.00,19,10,28,0.00
2013-10-25,79.0,63.4,50.0,38.0,26.9,23.0,35,26,15,0.00,40.00,18,8,22,0.00
2013-10-26,83.0,66.6,55.0,28.0,20.6,14.0,33,18,8,0.00,40.00,20,9,28,0.00
2013-10-27,78.0,65.5,56.0,33.0,21.8,16.0,34,20,12,0.00,40.00,17,12,34,0.00
2013-10-28,59.0,46.1,40.0,42.0,35.0,-99.9,93,70,38,0.00,40.00,26,12,49,0.37
2013-10-29,55.0,47.4,40.0,40.0,36.4,32.0,93,67,44,0.00,40.00,24,6,36,0.02
2013-10-30,62.0,49.0,40.0,41.0,35.0,26.0,81,61,27,0.00,40.00,13,6,17,0.00
2013-10-31,73.0,55.0,42.0,38.0,30.0,20.0,71,44,14,0.00,40.00,14,6,19,0.00
2013-11-1,77.0,60.0,47.0,31.0,26.3,22.0,47,31,13,0.00,40.00,14,9,22,0.00
2013-11-2,73.0,59.1,47.0,29.0,24.4,18.0,39,28,14,0.00,40.00,20,10,31,0.00
2013-11-3,63.0,54.7,46.0,41.0,34.1,27.0,71,47,30,0.00,40.00,24,10,36,0.00
2013-11-4,56.0,48.8,43.0,39.0,32.9,27.0,76,56,33,0.00,40.00,22,8,30,0.00
2013-11-5,64.0,49.0,37.0,31.0,22.0,7.0,73,41,11,0.00,40.00,14,6,19,0.00
2013-11-6,75.0,56.8,43.0,22.0,16.4,11.0,36,23,9,0.00,40.00,19,11,23,0.00
2013-11-7,76.0,60.6,50.0,25.0,22.1,19.0,31,24,13,0.00,40.00,18,10,23,0.00
2013-11-8,72.0,58.2,47.0,28.0,23.5,20.0,39,27,14,0.00,40.00,14,7,21,0.00
2013-11-9,74.0,59.2,47.0,26.0,20.8,13.0,42,24,11,0.00,40.00,15,7,20,0.00
2013-11-10,78.0,62.9,49.0,20.0,15.1,10.0,26,17,8,0.00,40.00,15,9,22,0.00
2013-11-11,81.0,63.5,50.0,17.0,14.0,8.0,25,16,7,0.00,40.00,16,12,29,0.00
2013-11-12,72.0,63.7,57.0,21.0,15.2,11.0,24,15,10,0.00,40.00,15,8,22,0.00
2013-11-13,73.0,58.2,49.0,39.0,30.5,21.0,53,36,20,0.00,40.00,15,4,21,0.00
2013-11-14,76.0,60.1,47.0,36.0,30.0,22.0,52,35,13,0.00,40.00,15,7,28,0.00
2013-11-15,65.0,53.6,45.0,40.0,36.8,30.0,79,54,33,0.00,40.00,24,7,31,0.00
2013-11-16,64.0,50.9,40.0,39.0,32.8,28.0,80,53,26,0.00,40.00,21,8,42,0.00
2013-11-17,67.0,52.0,41.0,36.0,32.5,29.0,63,49,27,0.00,40.00,19,8,25,0.00
2013-11-18,64.0,52.4,44.0,38.0,33.3,29.0,65,50,30,0.00,40.00,21,10,26,0.00
2013-11-19,61.0,50.7,43.0,41.0,37.1,30.0,75,61,42,0.00,40.00,23,7,32,0.00
2013-11-20,67.0,54.0,46.0,49.0,41.0,39.0,95,63,36,0.00,40.00,23,8,33,0.02
2013-11-21,54.0,49.2,44.0,49.0,45.0,40.0,99,86,69,0.00,40.00,23,8,34,0.12
2013-11-22,49.0,46.5,44.0,43.0,35.8,31.0,94,67,55,0.00,40.00,22,5,30,0.02
2013-11-23,55.0,48.8,44.0,36.0,33.4,30.0,64,55,43,0.00,40.00,15,5,20,0.00
2013-11-24,58.0,48.5,41.0,39.0,34.8,24.0,77,61,28,0.00,40.00,13,6,17,0.00
2013-11-25,63.0,48.5,38.0,36.0,33.7,31.0,83,59,30,0.00,40.00,12,4,16,0.00
2013-11-26,68.0,54.7,45.0,32.0,26.7,20.0,56,36,18,0.00,40.00,18,10,25,0.00
2013-11-27,64.0,54.4,46.0,32.0,28.0,26.0,51,37,24,0.00,40.00,22,13,36,0.00
2013-11-28,62.0,52.0,44.0,31.0,28.1,25.0,58,41,26,0.00,40.00,18,10,37,0.00
2013-11-29,64.0,52.3,45.0,29.0,27.2,25.0,49,39,24,0.00,40.00,15,11,23,0.00
2013-11-30,65.0,52.5,43.0,32.0,26.5,24.0,49,38,21,0.00,40.00,15,8,20,0.00
2013-12-1,66.0,51.8,41.0,29.0,24.7,21.0,56,37,18,0.00,40.00,12,5,18,0.00
2013-12-2,75.0,53.9,40.0,26.0,20.6,9.0,50,31,10,0.00,40.00,24,6,43,0.00
2013-12-3,59.0,50.8,42.0,41.0,33.1,19.0,73,53,22,0.00,40.00,28,14,49,0.00
2013-12-12,62.0,47.0,38.0,20.0,15.9,11.0,45,30,15,0.00,40.00,16,10,27,0.00
2013-12-13,58.0,45.6,39.0,27.0,18.5,14.0,52,35,18,0.00,40.00,10,6,19,0.00
2013-12-14,66.0,49.1,38.0,22.0,16.8,12.0,44,30,12,0.00,40.00,18,11,26,0.00
2013-12-15,73.0,54.5,44.0,24.0,20.4,17.0,37,27,12,0.00,40.00,20,11,25,0.00
2013-12-16,77.0,59.7,51.0,26.0,22.3,19.0,33,25,12,0.00,40.00,19,12,26,0.00
2013-12-17,76.0,59.6,51.0,25.0,21.5,17.0,32,24,11,0.00,40.00,18,12,27,0.00
2013-12-18,64.0,57.5,51.0,27.0,24.0,20.0,36,27,22,0.00,40.00,16,8,29,0.00
2013-12-19,54.0,45.0,39.0,38.0,31.2,15.0,92,63,23,0.00,40.00,17,8,34,0.03
2013-12-20,54.0,40.3,32.0,35.0,30.3,28.0,93,69,46,0.00,40.00,11,5,17,0.02
2013-12-21,55.0,40.5,31.0,32.0,29.5,27.0,93,68,38,0.00,40.00,7,4,13,0.00
2013-12-22,65.0,47.4,34.0,31.0,27.9,26.0,74,50,24,0.00,40.00,14,6,19,0.00
2013-12-23,67.0,51.8,42.0,30.0,27.0,25.0,52,40,21,0.00,40.00,18,11,26,0.00
2013-12-24,68.0,51.9,40.0,29.0,26.0,23.0,63,39,18,0.00,40.00,17,6,22,0.00
2013-12-25,72.0,53.9,45.0,23.0,14.3,4.0,36,23,8,0.00,40.00,17,12,24,0.00
2013-12-26,70.0,54.4,46.0,13.0,6.0,0.0,24,15,8,0.00,40.00,17,10,24,0.00
2013-12-28,65.0,52.1,42.0,25.0,13.2,9.0,33,22,12,0.00,40.00,13,6,23,0.00
2013-12-29,67.0,51.2,40.0,15.0,9.8,3.0,36,20,8,0.00,40.00,15,8,21,0.00
2013-12-30,67.0,52.0,39.0,14.0,10.6,8.0,30,20,10,0.00,40.00,14,6,20,0.00
2013-12-31,65.0,50.5,40.0,18.0,14.5,11.0,34,24,12,0.00,40.00,12,5,18,0.00
2014-1-1,73.0,53.4,42.0,20.0,17.1,15.0,38,25,11,0.00,40.00,16,6,21,0.00
2014-1-2,70.0,55.2,45.0,23.0,20.4,18.0,33,26,16,0.00,40.00,17,10,25,0.00